Location: Campillo
(40.8621°N, 4.2488°W)
Time: 17:16:32
(UTC+00:00)

Cosmos 2084 - Pass Details

Date: 01 October 2021
Orbit: 528 x 653 km, 62.8° (Epoch: 25 October)

Event Time Altitude Azimuth Distance (km) Brightness Sun altitude
Exits shadow 04:00:20 40° 16° (NNE) 809 4.3 -25.6°
Drops below altitude 10° 04:03:05 10° 31° (NNE) 1,819 6.6 -25.2°
Sets 04:05:21 0° 34° (NNE) 2,733 7.7 -24.7°
